Regional Weather Roundup
Issued by NWS Wakefield, VA

Home | Current Version | Previous Version | Graphics & Text | Print | Product List | Glossary On
Versions: 1 2 3 4 5 6 7 8 9 10 11 12 13 14 15 16 17 18 19 20 21 22 23 24 25 26 27 28 29 30 31 32 33 34 35 36 37 38 39 40 41 42 43 44 45 46 47 48 49 50
000
ASUS41 KAKQ 140410
RWRAKQ

REGIONAL WEATHER ROUNDUP
NATIONAL WEATHER SERVICE WAKEFIELD VA
1200 AM EDT SUN SEP 14 2014

Note: "fair" indicates few or no clouds below 12,000 feet with no
significant weather and/or obstructions to visibility. * = Denotes
station may not report precipitation (e.g., rain,snow,etc.),
thunder or fog.

VAZ042-051-052>054-056-140500-
NORTHERN VIRGINIA

CITY           SKY/WX    TMP DP  RH WIND       PRES   REMARKS
WASH NATIONAL  PTCLDY    64  55  72 NW9       30.23S
DULLES         PTCLDY    56  53  90 CALM      30.24S
FORT BELVOIR   CLEAR     57  55  94 CALM      30.23S
QUANTICO       CLEAR     60  56  86 NW9       30.23S
FREDERICKSBRG* CLEAR     57  57 100 NW3       30.22S
STAFFORD*      CLEAR     54  54 100 CALM      30.27R FOG
WARRENTON      CLEAR     55  55 100 CALM      30.24R
CULPEPER*      CLEAR    N/A N/A N/A NW3       30.25S
MANASSAS*      PTCLDY    54  54 100 CALM      30.24R
LEESBURG*      CLEAR     57  55  94 NW9       30.26S
WINCHESTER     CLEAR     55  50  82 NW3       30.28R
FRONT ROYAL*   CLEAR     55  50  82 CALM      30.26S
LURAY*         CLEAR     52  52 100 CALM      30.27S
$$

VAZ048-049-060>072-079>083-140500-
CENTRAL AND SOUTH CENTRAL VIRGINIA...AND NORTH CENTRAL NORTH CAROLINA

CITY           SKY/WX    TMP DP  RH WIND       PRES   REMARKS
RICHMOND       PTCLDY    63  57  81 N6        30.21S
CHESTERFIELD*  CLEAR     63  48  59 N3        30.23S
PETERSBURG*    CLEAR     63  58  83 NW3       30.21S
HANOVER        CLEAR     61  56  83 CALM      30.23S
TAPPAHANNOCK*  CLEAR     61  56  83 CALM      30.22R
CHARLOTTSVILLE PTCLDY    58  52  80 CALM      30.24S
ORANGE*        CLEAR     54  52  94 CALM      30.26S
LOUISA*        MOCLDY    61  54  77 N3        30.22S
FARMVILLE*     CLOUDY    66  61  82 CALM      30.21S
CREWE*         CLOUDY    66  61  82 CALM      30.22S
FORT PICKETT*  CLOUDY    63  60  91 NE3       30.22S
LUNENBURG*     CLOUDY    65  59  81 NE3       30.22R
SOUTH HILL*    PTCLDY    64  64 100 N3        30.26S
LAWRENCEVILLE* CLEAR     63  60  91 CALM      30.21S
ROANOKE RAPIDS PTCLDY    64  59  82 N8        30.19S
RALEIGH        CLOUDY    70  64  81 NE7       30.19R
$$

VAZ088>098-140500-
SOUTHEAST VIRGINIA

CITY           SKY/WX    TMP DP  RH WIND       PRES   REMARKS
NORFOLK        CLOUDY    70  61  73 N13       30.17S
VIRGINIA BEACH CLOUDY    70  64  81 N15G23    30.16S
NORFOLK NAVAL  CLOUDY    69  60  73 N16       30.19S
WEST POINT*    NOT AVBL
NEWPORT NEWS   CLOUDY    68  60  75 N6        30.19R
LANGLEY AFB    CLOUDY    67  60  76 VRB7      30.18R
FORT EUSTIS    CLOUDY    66  60  79 N9        30.17S
WILLIAMSBURG*  CLEAR     64  61  88 N3        30.20S
HR EXEC AP*    CLOUDY    66  59  77 N6        30.20S
FRANKLIN*        N/A     66  61  82 N6        30.19S
WAKEFIELD      CLEAR     64  59  83 N3        30.20R
$$

VAZ020-022-025-037-045-140500-
WEST CENTRAL AND SOUTHWEST VIRGINIA

CITY           SKY/WX    TMP DP  RH WIND       PRES   REMARKS
STAUNTON*      CLEAR     51  48  90 CALM      30.29S
HOT SPRINGS VA CLEAR     46  38  74 NW7       30.33S
LYNCHBURG      CLOUDY    64  54  69 N5        30.26R
DANVILLE       CLOUDY    66  57  72 N5        30.22R
SOUTH BOSTON*  NOT AVBL
MARTINSVILLE   PTCLDY    61  57  87 N3        30.26S
ROANOKE        CLOUDY    61  51  70 NW5       30.28R
BLACKSBURG     CLEAR     54  54 100 CALM      30.31S FOG
DUBLIN*        CLEAR     53  52  97 CALM      30.31S
MARION*        CLEAR     54  52  92 CALM      30.32S
HILLSVILLE*    CLEAR     53  50  90 N5        30.29F
RICHLANDS*     PTCLDY    56  55  93 E3        30.30S FOG
WISE*          CLOUDY    54  54 100 NE5       30.31S FOG
ABINGDON*      CLOUDY    61  55  79 E6        30.28S
$$

MDZ021>025-VAZ099-100-140500-
SOUTHERN MARYLAND AND THE DELMARVA PENINSULA

CITY           SKY/WX    TMP DP  RH WIND       PRES   REMARKS
PATUXENT RIVER CLEAR     64  56  75 NW13      30.19S
BAY BRIDGE APT   N/A     64  55  72 NW8       30.20S
LEONARDTOWN    CLEAR     59  54  82 CALM      30.22S
DOVER          CLEAR     60  58  94 NW9       30.16S
GEORGETOWN     CLEAR     61  57  87 VRB3      30.19R
EASTON         CLEAR     62  62 100 CALM      30.23S
CAMBRIDGE      CLEAR     64  55  72 N6        30.19S
SALISBURY      PTCLDY    63  58  83 N7        30.18R
OCEAN CITY     PTCLDY    62  58  86 NW7       30.16R
WALLOPS ISLAND CLOUDY    65  58  78 N10       30.18R
ACCOMACK*      CLOUDY    66  54  63 N12G22    30.17S
$$

NCZ012>017-030>032-140500-
EASTERN NORTH CAROLINA

CITY           SKY/WX    TMP DP  RH WIND       PRES   REMARKS
ELIZABETH CITY CLOUDY    68  65  90 N16       30.15F
AHOSKIE*       CLOUDY    66  57  73 N10G17    30.19S
EDENTON*       CLOUDY    66  64  91 N12G18    30.16R
CURRITUCK*     DRIZZLE   68  65  90 N7        30.17F
KILL DEVIL HLS DRIZZLE   71  70  96 N12G21    30.13R
MANTEO         CLOUDY    71  69  95 N15       30.14S
CAPE HATTERAS  CLOUDY    75  74  96 NW8       30.12S
TARBORO*       CLOUDY    70  63  79 NE6       30.19R
GOLDSBORO      CLOUDY    71  71  99 N2        30.14R
WASHINGTON     CLOUDY    71  69  94 N13       30.16R
GREENVILLE     CLOUDY    70  70 100 NE15      30.18R
NEW BERN       CLOUDY    76  72  87 N6        30.14S
WILMINGTON     PTCLDY    74  73  97 N5        30.12S
$$

VAZ048-140500-
ELSEWHERE

CITY           SKY/WX    TMP DP  RH WIND       PRES   REMARKS
HARRISBURG PA  CLEAR     55  49  80 NW6       30.24R
BALTIMORE      PTCLDY    57  54  89 NW5       30.22R
ANNAPOLIS      CLEAR     61  56  83 W5        30.21S
ANDREWS AFB    CLEAR     61  55  83 NW3       30.22S
WILMINGTON DE  CLEAR     56  55  97 NW8       30.20S
PHILADELPHIA   PTCLDY    59  55  87 NW9       30.20R
WILDWOOD NJ*   CLEAR     63  55  77 N9        30.17S
ATLANTIC CITY  CLEAR     60  59  96 N7        30.16R
HENDERSON NC   MOCLDY    66  58  74 NE10G23   30.21S
GREENSBORO     PTCLDY    63  55  75 N8        30.20F
ROCKY MOUNT    CLOUDY    70  66  87 NE17G24   30.19R
FAYETTEVILLE   CLOUDY    73  71  93 N8        30.15S
CHARLOTTE      CLOUDY    68  63  84 N12       30.19R
$$

VAZ100-140500-
MARINE

STATION/POSITION TIME  TEMP    WIND        PRES    WAVE   SWELL
                       AIR SEA DIR/SP/G            HT/PER HT/PER
                 (UTC) (F)     (DEG/KT/KT) (MB)    (FT/S) (FT/S)
44066 TX TWR #4  0400   71 73   10/ 10/ 12 1017.7R   3/ 6   3/ 6
CAPE MAY NJ      0400   65 76  350/  4/ 18 1020.9R
LEWES DE         0400   68 73  360/ 21/ 25 1021.3F
15NM E FENWICK I 0400   68 72              1020.0R   5/ 5
OCEAN-CITY-INLET 0400   65 73  350/ 13/ 17 1020.8R
WACHAPREAGUE VA  0400   67 75  360/  6/ 16 1021.7R
THOMAS POINT MD  0400   63 75  320/ 10/ 11 1023.7R
GOOSES REEF MD   0400   68     350/ 16/ 17 1023.0S
COVE POINT MD    0400   67     350/ 19/ 22 1022.2F
SOLOMONS ISLAND  0400      77                N/A
BISHOPS HEAD MD  0400   65 73  340/  5/  7 1021.7F
PINEY POINT MD   0400          360/ 12/ 13   N/A
POTOMAC MD       0400   67     350/ 12/ 16 1021.9S
CAMBRIDGE MD     0400   66 77  350/  9/ 12 1022.0S
LEWISETTA VA     0400   68 75  350/ 11/ 18 1022.2S
RAPPAHANNOCK LGT 0400          360/ 29/ 32 1022.0S
STINGRAY PT      0400   69     350/ 16/ 19   N/A
YORK RVR RNG VA  0400   69     360/ 19/ 22 1021.3R
YORKTOWN VA      0400   67 78  340/ 10/ 12 1021.9S
JAMESTOWN VA     0400   65     360/  6/  8   N/A
DOMINION TERM VA 0400   67     360/  8/ 13 1022.3R
KIPTOPEKE VA     0400      80   20/ 12/ 14   N/A
CHES BAY BRIDGE  0400   72 77  360/ 25/ 29 1021.0F
CAPE HENRY VA    0400   71      10/ 22/ 24 1020.2R
CHESAPEAKE LGHT  0300   70     360/ 25/ 27 1021.1R
WILLOUBY STN VA  0400   69      10/ 15/ 17 1020.6S
S CRANEY ISL VA  0400          320/ 12/ 18 1021.6S
CAPE HENRY BUOY  0400      76                N/A     5/ 5
1ST LANDING BUOY 0400   72      10/ 21/ 25 1021.0S
CAPE CHARLES BUO 0400      76                N/A     4/ 4   2/ 8
OFFSHORE WE BUOY 0400      75                N/A     5/ 5   2/ 8
64NM E OF VA BCH 0400   73 77  360/ 19/ 23 1019.4R   3/ 7   2/ 7
DUCK PIER NC     0400   72 78  350/ 26/ 29 1019.5R
44100 DUCK FRF   0400      76                N/A     4/ 4
44056 DUCK FRF   0400                        N/A     4/ 4
OREGON INLET NC  0400   73 79  350/ 13/ 19 1020.2R
HATTERAS NC      0400   77 82  300/ 13/ 14 1020.3S
DIAMOND SHLS NC  0400   77     310/ 14/ 16 1019.3F   2/ 8   2/ 8
CAPE LOOKOUT NC  0300   78     340/ 10/ 12 1019.9R
$$


USA.gov is the U.S. government's official web portal to all federal, state and local government web resources and services.